Regional Weather Roundup
Issued by NWS

Home | Current Version | Previous Version | Graphics & Text | Print | Product List | Glossary On
Versions: 1 2 3 4 5 6 7 8 9 10 11 12 13 14 15 16 17 18 19 20 21 22 23 24 25 26 27 28 29 30 31 32 33 34 35 36 37 38 39 40 41 42 43 44 45 46 47 48 49 50
000
ASUS43 KBIS 221402
RWRND

NORTH DAKOTA REGIONAL WEATHER ROUNDUP
NATIONAL WEATHER SERVICE BISMARCK ND
900 AM CDT TUE MAY 22 2018

NOTE: "FAIR" INDICATES FEW OR NO CLOUDS BELOW 12,000 FEET WITH NO
SIGNIFICANT WEATHER AND/OR OBSTRUCTIONS TO VISIBILITY.


NDZ001>003-009>011-017-221500-
NORTHWEST NORTH DAKOTA

CITY           SKY/WX    TMP DP  RH WIND       PRES   REMARKS
WILLISTON      MOSUNNY   64  51  62 S7        29.91R
MINOT          MOSUNNY   69  47  45 S9        29.91S
MINOT AFB      MOSUNNY   69  48  47 S8        29.89S
$$

NDZ018>021-031>035-040>046-221500-
SOUTHWEST NORTH DAKOTA

CITY           SKY/WX    TMP DP  RH WIND       PRES   REMARKS
BISMARCK       MOSUNNY   60  55  83 SE3       29.97R
DICKINSON      PTSUNNY   64  32  30 S13       29.94R
GARRISON         N/A     61  48  62 S5        29.93S
HETTINGER ARPT SUNNY     61  48  62 VRB5      29.97R
$$

NDZ004>008-012>016-024-026-027-054-221500-
NORTHEAST NORTH DAKOTA

CITY           SKY/WX    TMP DP  RH WIND       PRES   REMARKS
GRAND FORKS    FAIR      62  58  86 S9        29.97S
GRND FRKS AFB  FAIR      64  60  86 S10       29.97R
DEVILS LAKE    FAIR      63  56  78 S6        29.97R
$$

NDZ022-023-025-028>030-036>039-047>053-221500-
SOUTHEAST NORTH DAKOTA

CITY           SKY/WX    TMP DP  RH WIND       PRES   REMARKS
FARGO          CLOUDY    57  57 100 S9        30.00S FOG
JAMESTOWN      CLOUDY    63  57  81 S13       29.96S
$$




USA.gov is the U.S. government's official web portal to all federal, state and local government web resources and services.